Погода в Байройте

Германия     49°56′44″N   11°34′17″E
темп.,
°C
ветер,
м/с
пор.,
м/с
влажн.,
%
обл.,
%
осадки,
мм/ч
давл.,
гПа
погр.,
м
18 мая, ср
ср1823:00+13всв119288 0.0 102211
02:00+11вюв119486 0.0 102310
05:00+11вюв119596 0.0 102311
08:00+15юв24795 0.0 1024274
11:00+20ююв225613 0.0 1024956
14:00+23юв22456 0.0 10231759
17:00+23вюв224548 0.0 10221767
20:00+19вюв276959 0.0 1023158
19 мая, чт
чт1923:00+14вюв24835 0.0 102474
02:00+12вюв228352 0.0 102422
05:00+11в118775 0.0 102310
08:00+15юв1367100 0.0 1023195
11:00+21ююв354996 0.0 1022738
14:00+25ю3440100 0.0 10211236
17:00+25зюз3444100 0.0 10201370
20:00+20зюз2376100 0.0 102151
20 мая, пт
пт2023:00+17юз1189100 0.3 102212
02:00+16ююз019597 1.1 102211
05:00+15ю1195100 0.0 102311
08:00+18ю128811 0.0 1023172
11:00+24юз345598 0.0 10221046
14:00+28юз364146 0.0 10202064
17:00+28зюз464497 0.0 10182064
20:00+22зюз227423 0.0 101615
21 мая, сб
сб2123:00+19ююв3118568 0.0 1014216
02:00+18юз4138992 2.0 1014403
05:00+17з6139113 0.4 10151080
08:00+12зсз61183100 0.4 1020905
11:00+13з61067100 0.1 10221187
14:00+16зсз61054100 0.1 10221600
17:00+18зсз6104493 0.0 10212003
20:00+15зсз4960100 0.0 1021524
22 мая, вс
вс2223:00+10зсз238492 0.0 102261
02:00+8зюз00920 0.0 102310
05:00+7ююв00942 0.0 102210
08:00+12зсз117416 0.0 1022283
11:00+17ссз124310 0.0 10201162
14:00+21ссз1233100 0.0 10181514
17:00+21ссв1132100 0.0 10161579
20:00+16св2361100 0.0 101657